GW7237 Weather Reports


time (UTC)temp
F
wind
direction
speed
knots
gust
knots
rain 1hr
in
rain 24hr
in
rain mn
in
humidity
%
barometer
mb
20260509041954 53 169 0.0 0.0 0.00 0.00 0.00 60 1015.1
20260509041454 53 169 0.0 0.0 0.00 0.00 0.00 60 1015.0
20260509040451 53 168 0.0 0.0 0.00 0.00 0.00 60 1014.9
20260509035951 53 168 0.0 0.9 0.00 0.00 0.00 59 1015.0
20260509035450 53 168 0.0 0.9 0.00 0.00 0.00 59 1015.0
20260509034952 53 136 0.9 3.5 0.00 0.00 0.00 59 1014.9
20260509033948 52 136 0.9 2.6 0.00 0.00 0.00 61 1014.5
20260509033450 51 142 0.9 1.7 0.00 0.00 0.00 62 1014.6
20260509032948 51 129 0.0 1.7 0.00 0.00 0.00 63 1014.6
20260509032450 51 127 0.0 0.9 0.00 0.00 0.00 62 1014.6
20260509031944 51 127 0.0 0.0 0.00 0.00 0.00 62 1014.6
20260509031444 52 127 0.0 0.0 0.00 0.00 0.00 61 1014.6
20260509025946 54 127 0.0 0.9 0.00 0.00 0.00 57 1014.5
20260509025445 54 127 0.0 0.9 0.00 0.00 0.00 56 1014.4
20260509024944 54 127 0.0 0.9 0.00 0.00 0.00 56 1014.3
20260509024444 55 127 0.0 1.7 0.00 0.00 0.00 56 1014.2
20260509023945 55 126 0.0 1.7 0.00 0.00 0.00 56 1014.0
20260509023445 55 126 0.0 1.7 0.00 0.00 0.00 56 1013.9
20260509022947 55 126 0.0 1.7 0.00 0.00 0.00 56 1013.9
20260509021947 56 112 0.0 1.7 0.00 0.00 0.00 54 1014.0
20260509020944 56 93 0.0 0.9 0.00 0.00 0.00 54 1013.9
20260509020445 57 93 0.0 0.9 0.00 0.00 0.00 53 1013.9
20260509015944 57 93 0.0 0.9 0.00 0.00 0.00 52 1013.8
20260509014945 58 93 0.0 0.9 0.00 0.00 0.00 51 1013.6
20260509014444 58 93 0.0 0.9 0.00 0.00 0.00 51 1013.7
20260509013944 59 93 0.0 0.9 0.00 0.00 0.00 50 1013.6
20260509013444 59 93 0.0 0.9 0.00 0.00 0.00 49 1013.6
20260509012944 59 94 0.0 1.7 0.00 0.00 0.00 48 1013.6
20260509012442 59 96 0.0 1.7 0.00 0.00 0.00 47 1013.6
20260509011942 60 84 0.0 1.7 0.00 0.00 0.00 48 1013.6
20260509011441 60 83 0.0 2.6 0.00 0.00 0.00 46 1013.6
20260509010943 60 82 0.0 2.6 0.00 0.00 0.00 46 1013.4
20260509010442 61 113 0.0 3.5 0.00 0.00 0.00 46 1013.4
20260509005936 61 115 0.0 3.5 0.00 0.00 0.00 44 1013.4
20260509005431 61 89 0.0 2.6 0.00 0.00 0.00 45 1013.4
20260509004924 61 90 0.0 2.6 0.00 0.00 0.00 46 1013.4
20260509004418 62 51 0.0 1.7 0.00 0.00 0.00 45 1013.4
20260509003912 62 34 0.0 1.7 0.00 0.00 0.00 45 1013.6
20260509003406 62 24 0.0 0.9 0.00 0.00 0.00 44 1013.8
20260509002900 62 27 0.0 0.9 0.00 0.00 0.00 42 1013.6
20260509002401 63 28 0.0 1.7 0.00 0.00 0.00 41 1013.4
20260509001857 64 49 0.0 2.6 0.00 0.00 0.00 41 1013.4
20260509001400 64 98 0.0 2.6 0.00 0.00 0.00 41 1013.4
20260509000357 65 12 0.0 2.6 0.00 0.00 0.00 40 1013.3
20260508234858 65 298 0.9 5.2 0.00 0.00 0.00 40 1013.4
20260508234356 66 49 0.0 0.0 0.00 0.00 0.00 40 1013.3
20260508233853 66 70 0.0 2.6 0.00 0.00 0.00 38 1013.3
20260508233354 66 74 0.0 4.3 0.00 0.00 0.00 39 1013.4
20260508232853 66 63 0.0 4.3 0.00 0.00 0.00 40 1013.3
20260508232353 66 32 0.0 0.0 0.00 0.00 0.00 39 1013.3
20260508231851 66 327 0.0 1.7 0.00 0.00 0.00 39 1013.3
20260508231353 66 274 0.0 2.6 0.00 0.00 0.00 38 1013.2
20260508230351 66 62 0.9 7.8 0.00 0.00 0.00 40 1013.4
20260508225344 65 69 0.9 6.1 0.00 0.00 0.00 41 1013.4
20260508224834 65 101 0.9 6.1 0.00 0.00 0.00 39 1013.6
20260508223825 65 99 0.9 3.5 0.00 0.00 0.00 41 1013.4
20260508223316 66 126 0.0 3.5 0.00 0.00 0.00 39 1013.4
20260508222306 66 64 0.0 5.2 0.00 0.00 0.00 39 1013.4
20260508221758 66 290 0.9 4.3 0.00 0.00 0.00 41 1013.4
20260508221252 66 16 0.9 4.3 0.00 0.00 0.00 41 1013.6
20260508220746 66 65 0.9 4.3 0.00 0.00 0.00 41 1013.6
20260508220240 66 335 0.0 3.5 0.00 0.00 0.00 41 1013.6
20260508215734 66 279 0.9 3.5 0.00 0.00 0.00 40 1013.6
20260508215228 66 34 0.0 4.3 0.00 0.00 0.00 42 1013.6
20260508214722 65 49 0.0 1.7 0.00 0.00 0.00 42 1013.7
20260508212658 66 99 0.9 6.1 0.00 0.00 0.00 41 1013.9
20260508212152 66 154 0.9 5.2 0.00 0.00 0.00 39 1013.9
20260508211646 66 167 0.9 2.6 0.00 0.00 0.00 41 1013.9
20260508211140 65 33 0.9 5.2 0.00 0.00 0.00 39 1013.9
20260508210634 65 46 0.9 5.2 0.00 0.00 0.00 42 1014.0
20260508205116 65 287 0.9 6.1 0.00 0.00 0.00 43 1014.2
20260508204610 65 29 0.9 6.1 0.00 0.00 0.00 45 1014.2
20260508204105 65 36 0.9 4.3 0.00 0.00 0.00 43 1014.2
20260508203558 65 265 0.9 4.3 0.00 0.00 0.00 44 1014.2
20260508203051 65 0 0.9 3.5 0.00 0.00 0.00 43 1014.3
20260508202041 64 284 0.9 6.1 0.00 0.00 0.00 44 1014.3
20260508201535 64 61 0.9 6.1 0.00 0.00 0.00 44 1014.3
20260508201029 64 296 0.0 4.3 0.00 0.00 0.00 44 1014.4
20260508200015 64 48 0.9 5.2 0.00 0.00 0.00 45 1014.4
20260508194506 64 21 0.0 3.5 0.00 0.00 0.00 44 1014.6
20260508194007 63 20 0.0 0.9 0.00 0.00 0.00 42 1014.6
20260508193511 63 309 0.0 2.6 0.00 0.00 0.00 44 1014.9
20260508193006 63 28 0.9 4.3 0.00 0.00 0.00 45 1014.8
20260508192504 63 44 0.9 4.3 0.00 0.00 0.00 41 1014.9
20260508192003 63 57 0.0 2.6 0.00 0.00 0.00 43 1014.9
20260508191505 63 78 0.9 7.8 0.00 0.00 0.00 41 1014.9
20260508191003 64 55 0.9 7.8 0.00 0.00 0.00 40 1014.9
20260508190004 64 59 0.0 2.6 0.00 0.00 0.00 44 1014.9
20260508185504 63 76 0.0 0.9 0.00 0.00 0.00 44 1014.9
20260508185001 63 291 0.0 0.9 0.00 0.00 0.00 44 1015.0
20260508184501 63 65 0.0 0.9 0.00 0.00 0.00 47 1015.0
20260508184001 62 73 0.0 2.6 0.00 0.00 0.00 48 1015.1
20260508182955 62 101 0.0 1.7 0.00 0.00 0.00 43 1015.1
20260508182457 61 40 0.0 1.7 0.00 0.00 0.00 43 1015.3
20260508181953 61 26 0.0 1.7 0.00 0.00 0.00 44 1015.1
20260508181448 61 44 0.0 0.9 0.00 0.00 0.00 42 1015.4
20260508180942 61 298 0.0 0.0 0.00 0.00 0.00 43 1015.4
20260508175930 61 355 0.0 0.9 0.00 0.00 0.00 47 1015.4
20260508175424 60 55 0.0 0.0 0.00 0.00 0.00 46 1015.4
20260508174918 60 90 0.0 0.9 0.00 0.00 0.00 48 1015.5
20260508173906 59 103 0.0 0.0 0.00 0.00 0.00 51 1015.5
20260508173400 59 141 0.0 0.0 0.00 0.00 0.00 49 1015.6
20260508172854 59 141 0.0 0.0 0.00 0.00 0.00 49 1015.6
20260508171842 59 39 0.0 0.0 0.00 0.00 0.00 49 1015.6
20260508171336 59 61 0.0 0.0 0.00 0.00 0.00 50 1015.6
20260508170831 58 138 0.0 0.0 0.00 0.00 0.00 55 1015.6
20260508170325 58 144 0.0 0.0 0.00 0.00 0.00 51 1015.7
20260508165312 57 97 0.0 0.0 0.00 0.00 0.00 53 1015.9
20260508164806 57 98 0.0 0.0 0.00 0.00 0.00 53 1015.9
20260508164301 56 95 0.0 0.0 0.00 0.00 0.00 55 1016.0
20260508163800 56 93 0.0 0.0 0.00 0.00 0.00 56 1016.0
20260508163257 56 111 0.0 0.0 0.00 0.00 0.00 56 1016.0
20260508162756 55 133 0.0 0.0 0.00 0.00 0.00 58 1016.1
20260508162257 55 118 0.0 0.0 0.00 0.00 0.00 60 1016.1
20260508161758 54 48 0.0 0.0 0.00 0.00 0.00 62 1016.1
20260508161257 53 311 0.0 0.0 0.00 0.00 0.00 64 1016.1
20260508160755 53 246 0.0 0.0 0.00 0.00 0.00 63 1016.1
20260508160253 53 236 0.0 0.0 0.00 0.00 0.00 63 1016.1
20260508154756 52 229 0.0 0.0 0.00 0.00 0.00 67 1016.1
20260508154249 51 213 0.0 0.0 0.00 0.00 0.00 69 1016.2
20260508153748 51 188 0.0 2.6 0.00 0.00 0.00 70 1016.2
20260508153244 51 225 0.0 3.5 0.00 0.00 0.00 71 1016.3
20260508152746 50 184 0.0 3.5 0.00 0.00 0.00 73 1016.3
20260508152245 50 186 0.0 0.9 0.00 0.00 0.00 75 1016.3
20260508151744 49 255 0.0 3.5 0.00 0.00 0.00 75 1016.3
20260508150742 49 275 0.0 0.0 0.00 0.00 0.00 77 1016.5
20260508150234 49 185 0.0 0.9 0.00 0.00 0.00 77 1016.5
20260508145735 49 154 0.0 0.9 0.00 0.00 0.00 78 1016.5
20260508145234 48 184 0.0 0.0 0.00 0.00 0.00 81 1016.5
20260508144736 47 178 0.0 0.0 0.00 0.00 0.00 80 1016.6
20260508144232 47 210 0.0 0.0 0.00 0.00 0.00 82 1016.7
20260508143733 47 189 0.0 3.5 0.00 0.00 0.00 81 1016.8
20260508142734 47 207 0.0 3.5 0.00 0.00 0.00 82 1016.8
20260508142233 47 227 0.0 1.7 0.00 0.00 0.00 82 1016.8
20260508141734 47 196 0.0 0.0 0.00 0.00 0.00 81 1016.8
20260508141231 46 264 0.0 0.0 0.00 0.00 0.00 82 1016.8
20260508140729 46 273 0.0 0.0 0.00 0.00 0.00 83 1016.8
20260508135730 45 288 0.0 0.0 0.00 0.00 0.00 86 1017.0
20260508135229 45 288 0.0 0.0 0.00 0.00 0.00 86 1017.0
20260508134729 44 290 0.0 0.0 0.00 0.00 0.00 88 1016.8
20260508134230 44 292 0.0 0.0 0.00 0.00 0.00 88 1017.0
20260508133730 44 293 0.0 0.0 0.00 0.00 0.00 88 1016.8
20260508133230 44 293 0.0 0.9 0.00 0.00 0.00 89 1016.8
20260508132729 43 307 0.0 0.9 0.00 0.00 0.00 89 1016.7
20260508131230 42 307 0.0 0.9 0.00 0.00 0.00 90 1016.7
20260508130729 42 309 0.0 0.9 0.00 0.00 0.00 90 1016.7
20260508130228 42 313 0.0 0.9 0.00 0.00 0.00 90 1016.6
20260508125732 42 314 0.0 0.0 0.00 0.00 0.00 90 1016.5
20260508125233 42 314 0.0 0.0 0.00 0.00 0.00 90 1016.3
20260508123718 41 335 0.0 0.9 0.00 0.00 0.00 90 1015.7
20260508123212 40 335 0.0 0.9 0.00 0.00 0.00 89 1015.6
20260508122200 40 335 0.0 0.0 0.00 0.00 0.00 89 1015.6
20260508121654 39 335 0.0 0.0 0.00 0.00 0.00 89 1015.5
20260508121148 39 335 0.0 0.0 0.00 0.00 0.00 89 1015.4
20260508120642 39 335 0.0 0.0 0.00 0.00 0.00 88 1015.1
20260508120136 39 335 0.0 0.0 0.00 0.00 0.00 87 1015.1
20260508115630 39 335 0.0 0.0 0.00 0.00 0.00 84 1014.9
20260508114619 40 335 0.0 0.0 0.00 0.00 0.00 81 1014.8
20260508114113 41 335 0.0 0.0 0.00 0.00 0.00 82 1014.6
20260508113100 41 335 0.0 1.7 0.00 0.00 0.00 82 1014.6
20260508112047 41 273 0.0 3.5 0.00 0.00 0.00 83 1014.5
20260508111545 41 334 0.0 1.7 0.00 0.00 0.00 82 1014.8
20260508111036 41 224 0.0 1.7 0.00 0.00 0.00 82 1014.2
20260508110535 41 195 0.0 1.7 0.00 0.00 0.00 82 1014.0
20260508110036 41 260 0.0 0.9 0.00 0.00 0.00 82 1014.3
20260508105536 42 261 0.0 0.0 0.00 0.00 0.00 83 1014.0
20260508105035 41 262 0.0 0.0 0.00 0.00 0.00 83 1014.2
20260508104532 41 262 0.0 0.0 0.00 0.00 0.00 84 1014.3
20260508104033 41 273 0.0 0.0 0.00 0.00 0.00 85 1014.3
20260508103534 41 274 0.0 0.0 0.00 0.00 0.00 87 1014.2
20260508103032 40 283 0.0 0.0 0.00 0.00 0.00 88 1014.2
20260508102530 39 283 0.0 0.9 0.00 0.00 0.00 87 1014.3
20260508102031 39 283 0.0 0.9 0.00 0.00 0.00 87 1014.2
20260508101530 39 284 0.0 0.9 0.00 0.00 0.00 87 1014.0
20260508101031 39 284 0.0 0.0 0.00 0.00 0.00 87 1014.2
20260508100030 39 284 0.0 0.0 0.00 0.00 0.00 87 1014.0
20260508095530 39 284 0.0 0.0 0.00 0.00 0.00 86 1013.9
20260508095022 39 284 0.0 0.0 0.00 0.00 0.00 87 1013.9
20260508094516 39 284 0.0 0.0 0.00 0.00 0.00 86 1014.0
20260508094009 39 284 0.0 0.0 0.00 0.00 0.00 86 1014.0
20260508093503 39 284 0.0 0.0 0.00 0.00 0.00 86 1014.0
20260508092957 39 284 0.0 0.0 0.00 0.00 0.00 85 1014.0
20260508092451 39 284 0.0 0.0 0.00 0.00 0.00 85 1014.0
20260508091946 39 284 0.0 0.0 0.00 0.00 0.00 84 1014.0
20260508091439 39 284 0.0 0.0 0.00 0.00 0.00 83 1014.2
20260508090934 40 284 0.0 0.0 0.00 0.00 0.00 82 1014.2
20260508085921 40 284 0.0 0.9 0.00 0.00 0.00 83 1014.3
20260508085415 40 278 0.0 0.0 0.00 0.00 0.00 81 1014.4
20260508084910 41 278 0.0 0.0 0.00 0.00 0.00 79 1014.3
20260508084403 42 278 0.0 0.9 0.00 0.00 0.00 78 1014.3
20260508083857 42 278 0.0 0.9 0.00 0.00 0.00 78 1014.4
20260508082846 42 278 0.0 0.9 0.00 0.00 0.00 80 1014.5
20260508082339 42 275 0.0 0.9 0.00 0.00 0.00 80 1014.3
20260508081833 42 275 0.0 0.9 0.00 0.00 0.00 79 1014.4
20260508080821 43 277 0.0 0.9 0.00 0.00 0.00 76 1014.5
20260508080315 43 277 0.0 0.9 0.00 0.00 0.00 77 1014.5
20260508075808 43 277 0.0 0.9 0.00 0.00 0.00 78 1014.5
20260508075308 43 283 0.0 0.9 0.00 0.00 0.00 76 1014.6
20260508074252 44 283 0.0 0.9 0.00 0.00 0.00 76 1015.0
20260508073745 44 286 0.0 0.9 0.00 0.00 0.00 76 1015.1
20260508073239 44 291 0.0 0.9 0.00 0.00 0.00 77 1015.0
20260508072733 44 291 0.0 0.0 0.00 0.00 0.00 78 1015.1
20260508071722 44 291 0.0 0.0 0.00 0.00 0.00 77 1015.0
20260508071215 44 291 0.0 0.0 0.00 0.00 0.00 75 1014.8
20260508070202 45 291 0.0 0.9 0.00 0.00 0.00 73 1015.0
20260508065151 47 291 0.0 0.9 0.00 0.00 0.00 70 1015.1
20260508064645 47 291 0.0 0.9 0.00 0.00 0.00 69 1015.1
20260508064139 48 291 0.0 0.9 0.00 0.00 0.00 69 1015.1
20260508062621 48 305 0.0 0.9 0.00 0.00 0.00 68 1014.9
20260508062115 48 305 0.0 0.9 0.00 0.00 0.00 68 1014.8
20260508061612 48 305 0.0 0.9 0.00 0.00 0.00 67 1014.9
20260508061111 48 305 0.0 0.9 0.00 0.00 0.00 66 1014.8
20260508060113 49 305 0.0 0.9 0.00 0.00 0.00 65 1014.8
20260508055612 49 304 0.0 0.9 0.00 0.00 0.00 64 1014.8
20260508055113 49 301 0.0 0.9 0.00 0.00 0.00 63 1014.9
20260508054611 49 299 0.0 0.9 0.00 0.00 0.00 62 1014.8
20260508054112 50 299 0.0 0.9 0.00 0.00 0.00 61 1014.6
20260508053610 50 300 0.0 0.9 0.00 0.00 0.00 61 1014.6
20260508053112 50 283 0.0 0.9 0.00 0.00 0.00 62 1014.5
20260508052110 50 284 0.0 2.6 0.00 0.00 0.00 61 1014.6
20260508051610 50 297 0.0 1.7 0.00 0.00 0.00 60 1014.8
20260508051111 50 298 0.0 1.7 0.00 0.00 0.00 62 1014.6
20260508050610 49 301 0.0 0.9 0.00 0.00 0.00 61 1014.5
20260508045605 49 309 0.0 0.0 0.00 0.00 0.00 62 1014.3
20260508045105 49 309 0.0 0.9 0.00 0.00 0.00 61 1014.2
20260508044600 49 309 0.0 0.9 0.00 0.00 0.00 62 1014.2
20260508044053 49 309 0.0 0.9 0.00 0.00 0.00 62 1014.0
20260508043547 49 309 0.0 0.9 0.00 0.00 0.00 62 1014.0
20260508043041 50 310 0.0 0.9 0.00 0.00 0.00 61 1014.0